Starlink 32003

operational
NORAD ID: 60097 Int'l Des: 2024-117 Owner: SPXS Country: US Constellation: starlink
LEOCIRCULAR

About Starlink 32003

Description loading...

Live Position

Loading 3D Globe...

Upcoming Passes

Altitude History

Altitude vs Time

uPlot chart will show altitude changes over time

Two-Line Element Set

1 60097U 24117G 25352.21199109 -.00002004 00000-0 -55546-4 0 9993
2 60097 53.1604 55.4531 0000972 81.1623 278.9488 15.30210896 84413
Epoch: Dec 18, 2025 • Age: 11 hours

Current Status

Altitude 475.1 km
Velocity 7.63 km/s
Sub-Earth Point 10.21°N, 91.77°E
Launch Date Jun 23, 2024
Age 1.4 years
Type internet

Technical Details

Classification Payload
Mass 730.00 kg
Dry Mass 700.00 kg
Total Mass 730.00 kg
Length 0.30 m
Diameter 4.10 m
Span 29.00 m
Shape Box + pan
Manufacturer SPXS
Bus Type Starlink V2M
Phase Status In Orbit
Owner/State SPXS/US

Large Constellations

Loading constellations...